PAL2349 RPVP-RPMR

Flight info

Callsign PAL2349
Flight time 1h 13m
Altitude 35000
Route SAIRA1E SAIRA DCT ZAM W20 SEBUL SEBUL3R
Aircraft A21N/M-SDE2E3FGHIRWXY/LB1

Departure

Time 2026-04-21 04:43
Airport Puerto Princesa International Airport / PAF Antonio Bautista Air Base (RPVP)

Arrival

Time 2026-04-21 05:56
Airport General Santos International Airport (RPMR)
Time Latitude Longitude Altitude Speed Heading
2026-04-21 04:26 9.74508 118.74997 77 ft 0 kts
2026-04-21 04:31 9.74502 118.74997 77 ft 2 kts
2026-04-21 04:32 9.74487 118.74996 77 ft 2 kts
2026-04-21 04:32 9.74472 118.74995 77 ft 2 kts
2026-04-21 04:32 9.74457 118.74995 77 ft 2 kts
2026-04-21 04:32 9.74445 118.74995 77 ft 0 kts
2026-04-21 04:33 9.74432 118.74995 77 ft 2 kts 337°
2026-04-21 04:33 9.74421 118.75003 77 ft 2 kts 309°
2026-04-21 04:33 9.74414 118.75017 77 ft 1 kts 279°
2026-04-21 04:33 9.74414 118.75023 77 ft 1 kts 269°
2026-04-21 04:34 9.74413 118.75027 77 ft 0 kts 272°
2026-04-21 04:36 9.74414 118.75022 77 ft 1 kts 272°
2026-04-21 04:36 9.74416 118.74978 77 ft 11 kts 273°
2026-04-21 04:36 9.74419 118.74887 77 ft 13 kts 271°
2026-04-21 04:36 9.74423 118.74784 77 ft 15 kts 269°
2026-04-21 04:37 9.74374 118.74706 77 ft 10 kts 189°
2026-04-21 04:37 9.74330 118.74706 77 ft 11 kts 181°
2026-04-21 04:40 9.74307 118.74706 77 ft 7 kts 173°
2026-04-21 04:42 9.74278 118.74720 77 ft 8 kts 139°
2026-04-21 04:42 9.74255 118.74789 77 ft 11 kts 93°
2026-04-21 04:42 9.74250 118.74912 77 ft 41 kts 92°
2026-04-21 04:43 9.74224 118.75517 77 ft 124 kts 92°
2026-04-21 04:43 9.74185 118.76609 364 ft 164 kts 92°
2026-04-21 04:43 9.74167 118.77722 1357 ft 154 kts 91°
2026-04-21 04:43 9.74160 118.78826 2193 ft 157 kts 92°
2026-04-21 04:44 9.74155 118.79977 2633 ft 167 kts 92°
2026-04-21 04:44 9.74148 118.81252 2972 ft 184 kts 92°
2026-04-21 04:44 9.74141 118.82636 3321 ft 200 kts 92°
2026-04-21 04:44 9.74134 118.84152 3675 ft 217 kts 92°
2026-04-21 04:45 9.74127 118.85797 3959 ft 239 kts 92°
2026-04-21 04:45 9.74119 118.87579 4357 ft 258 kts 92°
2026-04-21 04:45 9.74113 118.89468 4899 ft 270 kts 92°
2026-04-21 04:45 9.74108 118.91415 5625 ft 274 kts 92°
2026-04-21 04:46 9.74103 118.93357 6329 ft 279 kts 92°
2026-04-21 04:46 9.74097 118.95245 6982 ft 283 kts 92°
2026-04-21 04:46 9.74090 118.97262 7659 ft 288 kts 92°
2026-04-21 04:46 9.74082 118.99228 8300 ft 292 kts 92°
2026-04-21 04:47 9.74074 119.01367 8974 ft 297 kts 92°
2026-04-21 04:47 9.74066 119.03477 9620 ft 301 kts 91°
2026-04-21 04:47 9.74057 119.05636 10262 ft 306 kts 91°
2026-04-21 04:47 9.74048 119.07853 10650 ft 320 kts 91°
2026-04-21 04:48 9.74040 119.10173 10937 ft 336 kts 91°
2026-04-21 04:48 9.74031 119.12625 11295 ft 349 kts 91°
2026-04-21 04:48 9.74021 119.15125 11883 ft 353 kts 90°
2026-04-21 04:48 9.74012 119.17627 12522 ft 356 kts 90°
2026-04-21 04:49 9.74003 119.20176 13144 ft 359 kts 90°
2026-04-21 04:49 9.73993 119.22717 13748 ft 362 kts 90°
2026-04-21 04:49 9.73984 119.25302 14350 ft 365 kts 90°
2026-04-21 04:49 9.73974 119.27900 14943 ft 368 kts 90°
2026-04-21 04:50 9.73964 119.30518 15527 ft 371 kts 90°
2026-04-21 04:50 9.73953 119.33164 16105 ft 373 kts 89°
2026-04-21 04:50 9.73942 119.35844 16677 ft 376 kts 89°
2026-04-21 04:50 9.73930 119.38519 17235 ft 379 kts 89°
2026-04-21 04:51 9.73843 119.41206 17768 ft 382 kts 97°
2026-04-21 04:51 9.73043 119.43791 18265 ft 386 kts 118°
2026-04-21 04:51 9.71386 119.45982 18801 ft 387 kts 135°
2026-04-21 04:51 9.69401 119.47865 19333 ft 390 kts 138°
2026-04-21 04:52 9.67373 119.49720 19809 ft 393 kts 138°
2026-04-21 04:52 9.65330 119.51592 20295 ft 396 kts 137°
2026-04-21 04:52 9.63264 119.53501 20787 ft 399 kts 137°
2026-04-21 04:52 9.61215 119.55407 21264 ft 401 kts 137°
2026-04-21 04:53 9.59125 119.57359 21739 ft 404 kts 137°
2026-04-21 04:53 9.57058 119.59295 22194 ft 406 kts 136°
2026-04-21 04:53 9.54949 119.61273 22643 ft 409 kts 136°
2026-04-21 04:53 9.52837 119.63256 23081 ft 411 kts 136°
2026-04-21 04:54 9.50727 119.65237 23508 ft 413 kts 136°
2026-04-21 04:54 9.48615 119.67220 23922 ft 415 kts 136°
2026-04-21 04:54 9.46481 119.69224 24331 ft 417 kts 136°
2026-04-21 04:54 9.44314 119.71258 24734 ft 419 kts 136°
2026-04-21 04:55 9.42155 119.73286 25125 ft 421 kts 136°
2026-04-21 04:55 9.39988 119.75319 25506 ft 423 kts 136°
2026-04-21 04:55 9.37791 119.77381 25882 ft 425 kts 136°
2026-04-21 04:55 9.35591 119.79445 26247 ft 427 kts 136°
2026-04-21 04:56 9.33399 119.81502 26601 ft 429 kts 136°
2026-04-21 04:56 9.31202 119.83562 26947 ft 431 kts 136°
2026-04-21 04:56 9.28956 119.85668 27290 ft 432 kts 136°
2026-04-21 04:56 9.26723 119.87762 27623 ft 434 kts 136°
2026-04-21 04:57 9.24499 119.89848 27951 ft 436 kts 136°
2026-04-21 04:57 9.22275 119.91932 28274 ft 438 kts 136°
2026-04-21 04:57 9.20011 119.94053 28596 ft 439 kts 136°
2026-04-21 04:57 9.17760 119.96162 28911 ft 441 kts 136°
2026-04-21 04:58 9.15490 119.98288 29221 ft 442 kts 136°
2026-04-21 04:58 9.13197 120.00436 29529 ft 444 kts 136°
2026-04-21 04:58 9.10912 120.02576 29829 ft 446 kts 136°
2026-04-21 04:58 9.08631 120.04711 30108 ft 447 kts 136°
2026-04-21 04:59 9.06310 120.06885 30371 ft 450 kts 136°
2026-04-21 04:59 9.03993 120.09052 30624 ft 452 kts 136°
2026-04-21 04:59 9.01657 120.11239 30871 ft 454 kts 136°
2026-04-21 04:59 8.99318 120.13428 31109 ft 457 kts 136°
2026-04-21 05:00 8.96988 120.15608 31401 ft 458 kts 136°
2026-04-21 05:00 8.94640 120.17803 31750 ft 457 kts 136°
2026-04-21 05:00 8.89917 120.22218 32493 ft 455 kts 136°
2026-04-21 05:01 8.87605 120.24379 32852 ft 453 kts 136°
2026-04-21 05:01 8.85265 120.26566 33203 ft 452 kts 136°
2026-04-21 05:01 8.82949 120.28729 33508 ft 452 kts 136°
2026-04-21 05:01 8.80608 120.30917 33775 ft 453 kts 136°
2026-04-21 05:02 8.78280 120.33092 34028 ft 453 kts 136°
2026-04-21 05:02 8.75967 120.35253 34278 ft 454 kts 136°
2026-04-21 05:02 8.73619 120.37446 34522 ft 455 kts 136°
2026-04-21 05:02 8.71279 120.39631 34757 ft 456 kts 136°
2026-04-21 05:03 8.68906 120.41846 34898 ft 457 kts 136°
2026-04-21 05:03 8.66553 120.44041 34901 ft 458 kts 136°
2026-04-21 05:03 8.61827 120.48451 34900 ft 458 kts 136°
2026-04-21 05:04 8.57130 120.52831 34898 ft 458 kts 136°
2026-04-21 05:04 8.52426 120.57217 34894 ft 458 kts 136°
2026-04-21 05:05 8.47687 120.61634 34890 ft 458 kts 136°
2026-04-21 05:05 8.42984 120.66016 34884 ft 458 kts 136°
2026-04-21 05:06 8.38264 120.70411 34879 ft 458 kts 136°
2026-04-21 05:06 8.33547 120.74802 34874 ft 458 kts 136°
2026-04-21 05:07 8.28822 120.79200 34872 ft 458 kts 136°
2026-04-21 05:07 8.24093 120.83600 34872 ft 458 kts 136°
2026-04-21 05:08 8.19422 120.87944 34872 ft 458 kts 136°
2026-04-21 05:08 8.14681 120.92352 34872 ft 458 kts 136°
2026-04-21 05:09 8.09952 120.96748 34872 ft 458 kts 136°
2026-04-21 05:09 8.05236 121.01132 34872 ft 458 kts 136°
2026-04-21 05:10 8.00511 121.05522 34872 ft 458 kts 136°
2026-04-21 05:10 7.95779 121.09917 34872 ft 458 kts 137°
2026-04-21 05:11 7.91091 121.14267 34872 ft 457 kts 137°
2026-04-21 05:11 7.86361 121.18655 34872 ft 456 kts 137°
2026-04-21 05:12 7.81641 121.23033 34872 ft 456 kts 137°
2026-04-21 05:12 7.76971 121.27361 34872 ft 456 kts 137°
2026-04-21 05:13 7.72288 121.31702 34872 ft 456 kts 137°
2026-04-21 05:13 7.67560 121.36084 34872 ft 456 kts 137°
2026-04-21 05:14 7.62849 121.40449 34872 ft 456 kts 137°
2026-04-21 05:14 7.58157 121.44795 34872 ft 456 kts 137°
2026-04-21 05:15 7.53465 121.49139 34872 ft 456 kts 137°
2026-04-21 05:15 7.48732 121.53520 34872 ft 456 kts 137°
2026-04-21 05:16 7.44036 121.57864 34872 ft 456 kts 137°
2026-04-21 05:16 7.39331 121.62218 34872 ft 456 kts 137°
2026-04-21 05:17 7.34740 121.66464 34872 ft 456 kts 137°
2026-04-21 05:17 7.30029 121.70819 34871 ft 456 kts 137°
2026-04-21 05:18 7.25331 121.75162 34872 ft 456 kts 137°
2026-04-21 05:18 7.20615 121.79520 34872 ft 456 kts 137°
2026-04-21 05:19 7.15909 121.83868 34872 ft 456 kts 137°
2026-04-21 05:19 7.11230 121.88191 34871 ft 456 kts 137°
2026-04-21 05:20 7.06529 121.92534 34872 ft 456 kts 137°
2026-04-21 05:20 7.01816 121.96886 34872 ft 456 kts 137°
2026-04-21 05:21 6.97252 122.01379 34871 ft 455 kts 131°
2026-04-21 05:21 6.93483 122.06548 34871 ft 455 kts 120°
2026-04-21 05:22 6.90719 122.12264 34871 ft 454 kts 110°
2026-04-21 05:22 6.88853 122.18391 34872 ft 453 kts 104°
2026-04-21 05:23 6.87181 122.24568 34872 ft 453 kts 104°
2026-04-21 05:23 6.85499 122.30712 34872 ft 453 kts 105°
2026-04-21 05:24 6.83794 122.36893 34872 ft 453 kts 105°
2026-04-21 05:24 6.82122 122.42935 34872 ft 453 kts 105°
2026-04-21 05:25 6.80457 122.48944 34872 ft 453 kts 105°
2026-04-21 05:25 6.78749 122.55093 34872 ft 453 kts 105°
2026-04-21 05:26 6.77039 122.61256 34872 ft 453 kts 105°
2026-04-21 05:26 6.75338 122.67384 34872 ft 453 kts 105°
2026-04-21 05:27 6.73633 122.73525 34872 ft 453 kts 105°
2026-04-21 05:27 6.71932 122.79649 34872 ft 453 kts 105°
2026-04-21 05:28 6.70225 122.85789 34872 ft 453 kts 105°
2026-04-21 05:28 6.68528 122.91889 34872 ft 453 kts 105°
2026-04-21 05:29 6.66848 122.97925 34873 ft 450 kts 105°
2026-04-21 05:29 6.65153 123.04017 34873 ft 447 kts 105°
2026-04-21 05:30 6.63482 123.10030 34873 ft 444 kts 105°
2026-04-21 05:30 6.61820 123.15998 34872 ft 442 kts 105°
2026-04-21 05:31 6.60159 123.21949 34872 ft 441 kts 105°
2026-04-21 05:31 6.58490 123.27930 34872 ft 441 kts 105°
2026-04-21 05:32 6.56837 123.33852 34872 ft 441 kts 105°
2026-04-21 05:32 6.55170 123.39823 34294 ft 442 kts 105°
2026-04-21 05:33 6.54338 123.42799 33657 ft 442 kts 105°
2026-04-21 05:33 6.53496 123.45818 32961 ft 442 kts 105°
2026-04-21 05:33 6.52668 123.48786 32251 ft 443 kts 106°
2026-04-21 05:33 6.51830 123.51786 31516 ft 444 kts 106°
2026-04-21 05:34 6.50989 123.54797 30763 ft 445 kts 106°
2026-04-21 05:34 6.50154 123.57786 30235 ft 440 kts 106°
2026-04-21 05:34 6.49329 123.60735 29756 ft 435 kts 106°
2026-04-21 05:34 6.48510 123.63665 29273 ft 430 kts 106°
2026-04-21 05:35 6.47839 123.66061 28872 ft 426 kts 107°
2026-04-21 05:35 6.47467 123.67390 28647 ft 425 kts 107°
2026-04-21 05:35 6.46959 123.69206 28338 ft 422 kts 107°
2026-04-21 05:35 6.46432 123.71088 28018 ft 419 kts 107°
2026-04-21 05:36 6.44634 123.77508 26919 ft 411 kts 107°
2026-04-21 05:36 6.43702 123.80836 26344 ft 407 kts 107°
2026-04-21 05:36 6.42935 123.83574 25873 ft 404 kts 107°
2026-04-21 05:37 6.41925 123.87178 25244 ft 400 kts 107°
2026-04-21 05:37 6.41169 123.89874 24770 ft 397 kts 107°
2026-04-21 05:37 6.40417 123.92555 24295 ft 394 kts 108°
2026-04-21 05:37 6.39915 123.94345 23977 ft 393 kts 108°
2026-04-21 05:38 6.39167 123.97013 23500 ft 390 kts 108°
2026-04-21 05:38 6.38180 124.00528 22870 ft 387 kts 108°
2026-04-21 05:38 6.37688 124.02280 22553 ft 386 kts 108°
2026-04-21 05:38 6.36712 124.05758 21923 ft 383 kts 108°
2026-04-21 05:39 6.35988 124.08337 21452 ft 382 kts 108°
2026-04-21 05:39 6.35498 124.10081 21135 ft 380 kts 108°
2026-04-21 05:39 6.34778 124.12645 20665 ft 379 kts 108°
2026-04-21 05:39 6.33830 124.16019 20047 ft 377 kts 108°
2026-04-21 05:40 6.33125 124.18527 19585 ft 375 kts 108°
2026-04-21 05:40 6.32416 124.21049 19120 ft 374 kts 108°
2026-04-21 05:40 6.31942 124.22733 18809 ft 373 kts 108°
2026-04-21 05:40 6.31243 124.25222 18342 ft 372 kts 108°
2026-04-21 05:41 6.30532 124.27750 17867 ft 370 kts 108°
2026-04-21 05:41 6.29593 124.31088 17236 ft 369 kts 108°
2026-04-21 05:41 6.29122 124.32761 16918 ft 368 kts 108°
2026-04-21 05:41 6.28415 124.35274 16439 ft 367 kts 108°
2026-04-21 05:42 6.27480 124.38597 15803 ft 366 kts 108°
2026-04-21 05:42 6.27014 124.40253 15485 ft 365 kts 108°
2026-04-21 05:42 6.26312 124.42746 14997 ft 364 kts 107°
2026-04-21 05:42 6.25391 124.46019 14345 ft 364 kts 107°
2026-04-21 05:43 6.24925 124.47673 14014 ft 363 kts 107°
2026-04-21 05:43 6.24003 124.50946 13356 ft 363 kts 107°
2026-04-21 05:43 6.23568 124.52594 13017 ft 363 kts 102°
2026-04-21 05:43 6.23500 124.55134 12495 ft 363 kts 79°
2026-04-21 05:44 6.24326 124.57495 12040 ft 359 kts 61°
2026-04-21 05:44 6.25560 124.59687 11548 ft 357 kts 57°
2026-04-21 05:44 6.27231 124.62490 10916 ft 355 kts 57°
2026-04-21 05:44 6.28080 124.63936 10598 ft 354 kts 57°
2026-04-21 05:45 6.28519 124.64694 10450 ft 352 kts 57°
2026-04-21 05:46 6.28681 124.64974 10417 ft 351 kts 57°
2026-04-21 05:46 6.30297 124.67814 10198 ft 333 kts 58°
2026-04-21 05:46 6.31055 124.69157 10104 ft 325 kts 58°
2026-04-21 05:46 6.32534 124.71783 9837 ft 311 kts 58°
2026-04-21 05:47 6.33256 124.73064 9553 ft 310 kts 57°
2026-04-21 05:47 6.34697 124.75620 9000 ft 307 kts 57°
2026-04-21 05:47 6.35584 124.77194 8661 ft 305 kts 57°
2026-04-21 05:47 6.36536 124.78884 8302 ft 302 kts 57°
2026-04-21 05:48 6.37115 124.79910 8084 ft 300 kts 57°
2026-04-21 05:48 6.37971 124.82119 7607 ft 303 kts 83°
2026-04-21 05:48 6.37340 124.84790 7183 ft 302 kts 120°
2026-04-21 05:48 6.36546 124.85962 6942 ft 300 kts 124°
2026-04-21 05:49 6.35302 124.87636 6568 ft 297 kts 125°
2026-04-21 05:49 6.34070 124.89294 6201 ft 294 kts 124°
2026-04-21 05:49 6.32921 124.90876 5855 ft 291 kts 124°
2026-04-21 05:49 6.31903 124.92307 5543 ft 288 kts 123°
2026-04-21 05:50 6.30613 124.94138 5147 ft 285 kts 123°
2026-04-21 05:50 6.29093 124.96307 4679 ft 280 kts 123°
2026-04-21 05:50 6.28015 124.97928 4327 ft 276 kts 117°
2026-04-21 05:50 6.27715 124.98487 4212 ft 275 kts 114°
2026-04-21 05:51 6.27213 124.99671 4032 ft 269 kts 107°
2026-04-21 05:51 6.25336 125.05846 3853 ft 234 kts 105°
2026-04-21 05:52 6.24555 125.07296 3615 ft 236 kts 136°
2026-04-21 05:52 6.23079 125.07972 3473 ft 228 kts 171°
2026-04-21 05:52 6.21598 125.08031 3388 ft 205 kts 178°
2026-04-21 05:52 6.20219 125.08031 3127 ft 192 kts 177°
2026-04-21 05:53 6.18940 125.08078 2802 ft 178 kts 174°
2026-04-21 05:53 6.17766 125.08164 2534 ft 162 kts 172°
2026-04-21 05:53 6.16667 125.08272 2313 ft 152 kts 170°
2026-04-21 05:53 6.15591 125.08394 2126 ft 151 kts 169°
2026-04-21 05:54 6.14542 125.08520 1997 ft 149 kts 169°
2026-04-21 05:54 6.13489 125.08648 1995 ft 150 kts 169°
2026-04-21 05:54 6.12439 125.08778 1947 ft 151 kts 169°
2026-04-21 05:54 6.11397 125.08887 1657 ft 149 kts 168°
2026-04-21 05:55 6.10362 125.09024 1346 ft 148 kts 167°
2026-04-21 05:55 6.09353 125.09182 979 ft 145 kts 167°
2026-04-21 05:55 6.08353 125.09302 770 ft 145 kts 170°
2026-04-21 05:55 6.07342 125.09424 568 ft 143 kts 167°
2026-04-21 05:56 6.06389 125.09541 512 ft 126 kts 167°
2026-04-21 05:56 6.05656 125.09640 511 ft 80 kts 174°
2026-04-21 05:56 6.05269 125.09684 511 ft 28 kts 173°
2026-04-21 05:56 6.05168 125.09706 511 ft 12 kts 155°
2026-04-21 05:57 6.05148 125.09700 511 ft 1 kts 285°
2026-04-21 05:57 6.05165 125.09695 511 ft 3 kts 353°
2026-04-21 05:57 6.05198 125.09692 511 ft 6 kts 353°
2026-04-21 05:57 6.05251 125.09685 511 ft 9 kts 353°
2026-04-21 05:58 6.05331 125.09676 511 ft 13 kts 354°
2026-04-21 05:58 6.05397 125.09712 511 ft 13 kts 68°
2026-04-21 05:58 6.05411 125.09813 511 ft 16 kts 83°
2026-04-21 05:58 6.05441 125.09901 511 ft 12 kts 29°
2026-04-21 05:59 6.05533 125.09900 511 ft 16 kts 354°
2026-04-21 05:59 6.05637 125.09888 511 ft 13 kts 353°
2026-04-21 05:59 6.05698 125.09892 511 ft 6 kts 57°
2026-04-21 06:00 6.05710 125.09965 511 ft 0 kts 82°
2026-04-21 06:00 6.05711 125.09967 511 ft 0 kts 82°